This is the latest recevied weather packets stored in our database for station/object WC4PEM-4. If no packets are shown the sender has not sent any weather packets the latest 10 day(s).
| Time | Temp. | Humidity | Pressure | Rain* | Wind** | Luminosity | Snow |
|---|---|---|---|---|---|---|---|
| 1788083184 | 22.78° C | 96% | 1016.3 hPa | 0 mm | - | - | - |
| 1788082884 | 22.78° C | 96% | 1016.4 hPa | 0 mm | - | - | - |
| 1788082720 | 22.78° C | 96% | 1016.2 hPa | 0 mm | - | - | - |
| 1788082584 | 22.78° C | 96% | 1016.2 hPa | 0 mm | - | - | - |
| 1788082297 | 22.78° C | 96% | 1016.3 hPa | 0 mm | - | - | - |
| 1788082226 | 34.44° C | 50% | 1016.3 hPa | 0 mm | - | - | - |
| 1788082224 | 33.33° C | 54% | 1016.6 hPa | 0 mm | - | - | - |
| 1788081984 | 22.78° C | 96% | 1016.3 hPa | 0 mm | - | - | - |
| 1788081811 | 22.78° C | 96% | 1016.4 hPa | 0 mm | - | - | - |
| 1788081684 | 22.78° C | 96% | 1016.4 hPa | 0 mm | - | - | - |
| 1788081500 | 22.78° C | 95% | 1016.2 hPa | 0 mm | - | - | - |
| 1788081384 | 22.78° C | 95% | 1016.2 hPa | 0 mm | - | - | - |
| 1788081228 | 22.78° C | 95% | 1016.2 hPa | 0 mm | - | - | - |
| 1788081084 | 22.78° C | 95% | 1016.2 hPa | 0 mm | - | - | - |
| 1788081009 | 22.78° C | 95% | 1016.4 hPa | 0 mm | - | - | - |
| 1788080784 | 22.78° C | 95% | 1016.4 hPa | 0 mm | - | - | - |
| 1788080656 | 22.78° C | 96% | 1016.3 hPa | 0 mm | - | - | - |
| 1788080484 | 22.78° C | 96% | 1016.3 hPa | 0 mm | - | - | - |
| 1788080345 | 22.78° C | 96% | 1016.4 hPa | 0 mm | - | - | - |
| 1788080184 | 22.78° C | 96% | 1016.4 hPa | 0 mm | - | - | - |
| 1788079884 | 22.78° C | 96% | 1016.4 hPa | 0 mm | - | - | - |
| 1788079584 | 22.78° C | 96% | 1016.5 hPa | 0 mm | - | - | - |
| 1788079454 | 22.78° C | 96% | 1016.3 hPa | 0 mm | - | - | - |
| 1788079284 | 22.78° C | 96% | 1016.3 hPa | 0 mm | - | - | - |
| 1788078984 | 22.78° C | 96% | 1016.4 hPa | 0 mm | - | - | - |
* Rain latest hour (hover to see other rain measurements)
** Current wind speed in m/s (hover to see current wind gust speed)